Location: Caltech
(34.1382°N, 118.1253°W)
Time: 23:29:11
(UTC-08:00)

Cosmos 1697 Rocket - Visible Passes

Search period start: 05 March 2015 00:00
Search period end: 15 March 2015 01:00
Orbit: 831 x 845 km, 71.0° (Epoch: 05 March)

Date Brightness Start Highest point End Pass type
(mag) Time Alt. Az. Time Alt. Az. Time Alt. Az.
05 Mar 5.1 20:06:14 10° NNE 20:06:18 10° NNE 20:06:18 10° NNE visible
06 Mar 4.9 19:50:20 10° NNE 19:50:56 12° NNE 19:50:56 12° NNE visible
06 Mar 5.5 21:32:33 10° NNW 21:32:41 11° NNW 21:32:41 11° NNW visible
07 Mar 4.7 19:34:29 10° NNE 19:35:37 13° NNE 19:35:37 13° NNE visible
07 Mar 5.2 21:16:26 10° NNW 21:17:22 15° NNW 21:17:22 15° NNW visible
08 Mar 4.6 20:18:40 10° NNE 20:20:21 13° NE 20:20:21 13° NE visible
08 Mar 4.8 22:00:21 10° NNW 22:02:07 21° NNW 22:02:07 21° NNW visible
09 Mar 4.5 20:02:54 10° NNE 20:05:07 13° NE 20:05:09 13° NE visible
09 Mar 4.2 21:44:15 10° NNW 21:46:56 29° NNW 21:46:56 29° NNW visible
10 Mar 4.5 19:47:14 10° NNE 19:48:57 12° NE 19:50:03 11° ENE visible
10 Mar 3.6 21:28:09 10° NNW 21:31:50 42° NNW 21:31:50 42° NNW visible
11 Mar 4.6 19:31:46 10° NE 19:32:48 11° NE 19:34:11 10° ENE visible
11 Mar 2.9 21:12:05 10° NNW 21:16:49 63° N 21:16:49 63° N visible
12 Mar 2.5 20:56:01 10° NNW 21:01:41 78° ENE 21:01:55 77° E visible
13 Mar 2.6 20:39:56 10° NNW 20:45:35 72° ENE 20:47:09 48° SE visible
13 Mar 5.4 22:26:54 10° WNW 22:28:58 12° W 22:28:58 12° W visible
14 Mar 2.6 20:23:52 10° NNW 20:29:30 67° ENE 20:32:33 28° SE visible
14 Mar 5.3 22:10:19 10° WNW 22:12:58 13° W 22:14:22 12° WSW visible
